This is the latest recevied weather packets stored in our database for station/object WB4YDL. If no packets are shown the sender has not sent any weather packets the latest 10 day(s).
| Time | Temp. | Humidity | Pressure | Rain* | Wind** | Luminosity | Snow |
|---|---|---|---|---|---|---|---|
| 1777485322 | 18.33° C | 81% | 1010.8 hPa | 0 mm | - | 718 W/m² | - |
| 1777485019 | 18.33° C | 82% | 1010.6 hPa | 0 mm | - | 414 W/m² | - |
| 1777484716 | 17.78° C | 83% | 1010.9 hPa | 0 mm | - | 508 W/m² | - |
| 1777484412 | 18.33° C | 80% | 1010.7 hPa | 0 mm | - | 261 W/m² | - |
| 1777484109 | 18.33° C | 78% | 1010.9 hPa | 0 mm | - | 921 W/m² | - |
| 1777483805 | 18.33° C | 78% | 1011.1 hPa | 0 mm | - | 485 W/m² | - |
| 1777483502 | 18.33° C | 82% | 1010.9 hPa | 0 mm | - | 373 W/m² | - |
| 1777483196 | 17.78° C | 79% | 1011.2 hPa | 0 mm | - | 468 W/m² | - |
| 1777482893 | 17.78° C | 81% | 1011 hPa | 0 mm | - | 311 W/m² | - |
| 1777482589 | 17.78° C | 80% | 1011 hPa | 0 mm | - | 837 W/m² | - |
| 1777482286 | 18.33° C | 80% | 1011.3 hPa | 0 mm | - | 433 W/m² | - |
| 1777481983 | 17.78° C | 84% | 1011.2 hPa | 1.78 mm | - | 888 W/m² | - |
| 1777481681 | 17.78° C | 82% | 1011.1 hPa | 1.78 mm | - | 298 W/m² | - |
| 1777481378 | 17.78° C | 82% | 1011.2 hPa | 0 mm | - | 339 W/m² | - |
| 1777481074 | 17.22° C | 84% | 1011.4 hPa | 0 mm | - | 1034 W/m² | - |
| 1777480771 | 17.22° C | 85% | 1011.1 hPa | 0 mm | - | 316 W/m² | - |
| 1777480468 | 17.22° C | 85% | 1011.2 hPa | 0 mm | - | 335 W/m² | - |
| 1777480164 | 16.67° C | 86% | 1011.4 hPa | 0 mm | - | 384 W/m² | - |
| 1777479861 | 17.22° C | 86% | 1011.2 hPa | 0 mm | - | 361 W/m² | - |
| 1777479557 | 17.22° C | 87% | 1011.2 hPa | 0 mm | - | 498 W/m² | - |
| 1777479255 | 16.67° C | 90% | 1011.2 hPa | 0 mm | - | 435 W/m² | - |
| 1777478952 | 16.11° C | 90% | 1011.1 hPa | 0 mm | - | 404 W/m² | - |
| 1777478649 | 15.56° C | 91% | 1011.1 hPa | 0 mm | - | 334 W/m² | - |
| 1777478345 | 15.56° C | 91% | 1011.1 hPa | 0 mm | - | 246 W/m² | - |
| 1777478041 | 15.56° C | 93% | 1010.9 hPa | 0 mm | - | 314 W/m² | - |
* Rain latest hour (hover to see other rain measurements)
** Current wind speed in m/s (hover to see current wind gust speed)